Change the Weather History Date:

Monday, December 17, 2012

  Actual Average (KPWC) Record (KPWC)
Temperature  
Mean Temperature 17 °F -  
Max Temperature 19 °F 22 °F 42 °F (2001)
Min Temperature 15 °F 7 °F -18 °F (2008)
Degree Days  
Heating Degree Days 48    
Moisture  
Dew Point 17 °F    
Average Humidity 96    
Maximum Humidity 100    
Minimum Humidity 93    
Precipitation  
Precipitation 0.00 in - - ()
Sea Level Pressure  
Sea Level Pressure 29.70 in    
Wind  
Wind Speed 1 mph (West)    
Max Wind Speed 5 mph    
Max Gust Speed -    
Visibility 8 miles    
Events      
Averages and records for this station are not official NWS values.
T = Trace of Precipitation, MM = Missing Value Source: NWS Daily Summary

Daily Weather History Graph

Daily Weather History Graph

Search for Another Location

Airport or City:

Trip Planner

Search our weather history database for the weather conditions in past years. The results will help you decide how hot, cold, wet, or windy it might be!

Date:

Astronomy

Dec. 17, 2012 Rise Set
Actual Time 7:57 AM CST 4:28 PM CST
Civil Twilight 7:22 AM CST 5:04 PM CST
Nautical Twilight 6:43 AM CST 5:43 PM CST
Astronomical Twilight 6:06 AM CST 6:20 PM CST
Moon 10:50 AM CST (12/17) 10:09 PM CST (12/17)
Length of Visible Light 9h 42m
Length of Day
8h 31m
Waxing Crescent, 25% of the Moon is Illuminated
Dec 17
Waxing Crescent
Dec 19
First Quarter
Dec 28
Full
Jan 4
Last Quarter
Jan 11
New

Hourly Weather History & Observations

Time (CST) Temp. Windchill Dew Point Humidity Pressure Visibility Wind Dir Wind Speed Gust Speed Precip Events Conditions
12:16 AM 19.4 °F 12.8 °F 17.6 °F 93% 29.76 in 10.0 mi WNW 4.6 mph - N/A   Overcast
12:36 AM 19.4 °F - 17.6 °F 93% 29.77 in 10.0 mi Calm Calm - N/A   Overcast
12:56 AM 19.4 °F - 17.6 °F 93% 29.76 in 10.0 mi Calm Calm - N/A   Overcast
1:16 AM 19.4 °F 12.8 °F 17.6 °F 93% 29.75 in 10.0 mi NNW 4.6 mph - N/A   Overcast
1:36 AM 19.4 °F - 17.6 °F 93% 29.75 in 10.0 mi Calm Calm - N/A   Overcast
1:56 AM 19.4 °F - 17.6 °F 93% 29.75 in 10.0 mi Calm Calm - N/A   Overcast
2:16 AM 19.4 °F - 17.6 °F 93% 29.75 in 10.0 mi Calm Calm - N/A   Overcast
2:36 AM 19.4 °F - 17.6 °F 93% 29.75 in 10.0 mi Calm Calm - N/A   Overcast
2:56 AM 19.4 °F - 17.6 °F 93% 29.74 in 10.0 mi Calm Calm - N/A   Overcast
3:16 AM 19.4 °F - 17.6 °F 93% 29.74 in 10.0 mi Calm Calm - N/A   Overcast
3:36 AM 19.4 °F - 17.6 °F 93% 29.74 in 10.0 mi Calm Calm - N/A   Overcast
3:56 AM 19.4 °F - 17.6 °F 93% 29.73 in 10.0 mi Calm Calm - N/A   Overcast
4:16 AM 19.4 °F - 17.6 °F 93% 29.73 in 10.0 mi Calm Calm - N/A   Overcast
4:36 AM 17.6 °F - 17.6 °F 100% 29.73 in 10.0 mi Calm Calm - N/A   Overcast
4:56 AM 17.6 °F - 17.6 °F 100% 29.73 in 10.0 mi Calm Calm - N/A   Overcast
5:16 AM 17.6 °F - 17.6 °F 100% 29.73 in 10.0 mi Calm Calm - N/A   Overcast
5:36 AM 17.6 °F - 17.6 °F 100% 29.73 in 7.0 mi Calm Calm - N/A   Overcast
5:56 AM 17.6 °F - 17.6 °F 100% 29.73 in 7.0 mi Calm Calm - N/A   Overcast
6:16 AM 17.6 °F - 17.6 °F 100% 29.72 in 7.0 mi Calm Calm - N/A   Overcast
6:36 AM 17.6 °F - 17.6 °F 100% 29.73 in 5.0 mi Calm Calm - N/A   Overcast
6:56 AM 17.6 °F - 17.6 °F 100% 29.72 in 7.0 mi Calm Calm - N/A   Overcast
7:16 AM 17.6 °F - 15.8 °F 93% 29.72 in 10.0 mi Calm Calm - N/A   Overcast
7:36 AM 17.6 °F - 15.8 °F 93% 29.72 in 7.0 mi Calm Calm - N/A   Overcast
7:56 AM 17.6 °F - 15.8 °F 93% 29.72 in 7.0 mi Calm Calm - N/A   Overcast
8:16 AM 17.6 °F - 15.8 °F 93% 29.72 in 7.0 mi Calm Calm - N/A   Overcast
8:36 AM 17.6 °F - 15.8 °F 93% 29.72 in 5.0 mi Calm Calm - N/A   Overcast
8:56 AM 17.6 °F - 15.8 °F 93% 29.72 in 7.0 mi Calm Calm - N/A   Overcast
9:16 AM 17.6 °F - 15.8 °F 93% 29.72 in 4.0 mi Calm Calm - N/A   Overcast
9:36 AM 17.6 °F - 15.8 °F 93% 29.72 in 4.0 mi Calm Calm - N/A   Overcast
9:56 AM 17.6 °F - 15.8 °F 93% 29.72 in 3.0 mi Calm Calm - N/A   Overcast
10:16 AM 17.6 °F - 15.8 °F 93% 29.73 in 4.0 mi Calm Calm - N/A   Overcast
10:36 AM 17.6 °F 12.3 °F 17.6 °F 100% 29.73 in 5.0 mi SSW 3.5 mph - N/A   Overcast
10:56 AM 17.6 °F - 17.6 °F 100% 29.72 in 4.0 mi Calm Calm - N/A   Overcast
11:16 AM 17.6 °F - 17.6 °F 100% 29.71 in 4.0 mi Calm Calm - N/A   Overcast
11:36 AM 17.6 °F - 17.6 °F 100% 29.71 in 4.0 mi Calm Calm - N/A   Overcast
11:56 AM 17.6 °F - 17.6 °F 100% 29.70 in 5.0 mi Calm Calm - N/A   Overcast
12:16 PM 19.4 °F - 17.6 °F 93% 29.70 in 7.0 mi Calm Calm - N/A   Overcast
12:36 PM 19.4 °F - 17.6 °F 93% 29.69 in 7.0 mi Calm Calm - N/A   Overcast
12:56 PM 19.4 °F - 17.6 °F 93% 29.68 in 5.0 mi Calm Calm - N/A   Overcast
1:16 PM 19.4 °F - 17.6 °F 93% 29.68 in 4.0 mi Calm Calm - N/A   Overcast
1:36 PM 17.6 °F - 17.6 °F 100% 29.67 in 5.0 mi Calm Calm - N/A   Overcast
1:56 PM 17.6 °F - 17.6 °F 100% 29.67 in 3.0 mi Calm Calm - N/A   Overcast
2:16 PM 17.6 °F - 17.6 °F 100% 29.66 in 7.0 mi Calm Calm - N/A   Overcast
2:36 PM 17.6 °F - 17.6 °F 100% 29.66 in 5.0 mi Calm Calm - N/A   Overcast
2:56 PM 17.6 °F - 17.6 °F 100% 29.66 in 7.0 mi Calm Calm - N/A   Overcast
3:16 PM 17.6 °F - 17.6 °F 100% 29.66 in 10.0 mi Calm Calm - N/A   Overcast
3:36 PM 17.6 °F - 17.6 °F 100% 29.66 in 10.0 mi Calm Calm - N/A   Overcast
3:56 PM 17.6 °F - 17.6 °F 100% 29.66 in 10.0 mi Calm Calm - N/A   Overcast
6:36 PM 17.6 °F - 15.8 °F 93% 29.67 in 10.0 mi Calm Calm - N/A   Overcast
6:56 PM 17.6 °F - 15.8 °F 93% 29.67 in 10.0 mi Calm Calm - N/A   Overcast
7:16 PM 17.6 °F - 15.8 °F 93% 29.67 in 10.0 mi Calm Calm - N/A   Overcast
7:36 PM 17.6 °F - 15.8 °F 93% 29.67 in 10.0 mi Calm Calm - N/A   Overcast
7:56 PM 15.8 °F - 15.8 °F 100% 29.67 in 10.0 mi Calm Calm - N/A   Overcast
8:16 PM 15.8 °F - 15.8 °F 100% 29.67 in 7.0 mi Calm Calm - N/A   Overcast
8:36 PM 15.8 °F - 15.8 °F 100% 29.67 in 7.0 mi Calm Calm - N/A   Overcast
8:56 PM 15.8 °F - 15.8 °F 100% 29.67 in 10.0 mi Calm Calm - N/A   Overcast
9:16 PM 17.6 °F - 15.8 °F 93% 29.67 in 7.0 mi Calm Calm - N/A   Overcast
9:36 PM 17.6 °F - 15.8 °F 93% 29.66 in 10.0 mi Calm Calm - N/A   Overcast
9:56 PM 17.6 °F - 15.8 °F 93% 29.66 in 10.0 mi Calm Calm - N/A   Overcast
10:16 PM 17.6 °F - 15.8 °F 93% 29.66 in 10.0 mi Calm Calm - N/A   Overcast
10:36 PM 17.6 °F - 15.8 °F 93% 29.66 in 10.0 mi Calm Calm - N/A   Overcast
10:56 PM 17.6 °F - 15.8 °F 93% 29.66 in 10.0 mi Calm Calm - N/A   Overcast
11:16 PM 17.6 °F - 15.8 °F 93% 29.66 in 10.0 mi Calm Calm - N/A   Overcast
11:36 PM 17.6 °F - 15.8 °F 93% 29.66 in 10.0 mi Calm Calm - N/A   Overcast
11:56 PM 17.6 °F - 17.6 °F 100% 29.66 in 10.0 mi Calm Calm - N/A   Overcast